DW8248 Weather Reports


time (UTC)temp
F
wind
direction
speed
knots
gust
knots
rain 1hr
in
rain 24hr
in
rain mn
in
humidity
%
barometer
mb
20260904155207 89 121 3.5 7.8 0.00 0.00 0.00 74 1016.4
20260904154209 89 184 5.2 9.6 0.00 0.00 0.00 73 1016.4
20260904152016 88 195 7.0 9.6 0.00 0.00 0.00 71 1016.2
20260904150952 88 212 7.0 9.6 0.00 0.00 0.00 72 1016.1
20260904144833 88 195 7.0 8.7 0.00 0.00 0.00 75 1016.0
20260904143843 87 200 5.2 8.7 0.00 0.00 0.00 75 1016.0
20260904142819 87 193 4.3 7.0 0.00 0.00 0.00 77 1016.0
20260904141812 87 189 5.2 7.0 0.00 0.00 0.00 77 1015.8
20260904140756 86 217 5.2 9.6 0.00 0.00 0.00 78 1015.7
20260904135756 86 215 7.0 9.6 0.00 0.00 0.00 78 1015.6
20260904134741 86 215 6.1 8.7 0.00 0.00 0.00 79 1015.5
20260904133718 85 198 5.2 7.0 0.00 0.00 0.00 79 1015.4
20260904132738 85 202 4.3 7.0 0.00 0.00 0.00 80 1015.4
20260904131711 85 186 1.7 3.5 0.00 0.00 0.00 82 1015.4
20260904125540 84 184 2.6 4.3 0.00 0.00 0.00 82 1015.4
20260904124548 83 167 2.6 4.3 0.00 0.00 0.00 83 1015.3
20260904123547 83 186 2.6 4.3 0.00 0.00 0.00 84 1015.3
20260904122555 83 182 3.5 4.3 0.00 0.00 0.00 84 1015.2
20260904121557 83 200 3.5 7.0 0.00 0.00 0.00 84 1015.2
20260904115426 83 192 4.3 6.1 0.00 0.00 0.00 84 1014.9
20260904114411 83 188 5.2 7.0 0.00 0.00 0.00 84 1014.8
20260904113354 83 191 4.3 7.8 0.00 0.00 0.00 83 1014.6
20260904112333 83 185 6.1 8.7 0.00 0.00 0.00 83 1014.5
20260904111322 84 190 6.1 8.7 0.00 0.00 0.00 82 1014.4
20260904103927 84 155 3.5 7.0 0.00 0.00 0.00 83 1014.0
20260904102921 84 144 2.6 6.1 0.00 0.00 0.00 83 1014.2
20260904100817 84 158 3.5 6.1 0.00 0.00 0.00 83 1014.0
20260904095806 84 155 4.3 7.8 0.00 0.00 0.00 83 1014.0
20260904094729 84 175 5.2 8.7 0.00 0.00 0.00 82 1013.9
20260904093713 84 167 5.2 8.7 0.00 0.00 0.00 82 1013.7
20260904091524 85 0 5.2 8.7 0.00 0.00 0.00 82 1013.5
20260904090538 85 137 4.3 8.7 0.00 0.00 0.00 83 1013.5
20260904083244 85 148 5.2 7.8 0.00 0.00 0.00 83 1013.5
20260904082213 85 158 4.3 7.8 0.00 0.00 0.00 83 1013.4
20260904081225 85 159 4.3 8.7 0.00 0.00 0.00 82 1013.4
20260904080208 85 153 5.2 8.7 0.00 0.00 0.00 82 1013.3
20260904075154 85 150 6.1 8.7 0.00 0.00 0.00 82 1013.3
20260904073034 84 0 4.3 7.8 0.00 0.00 0.00 84 1013.3
20260904071958 84 137 5.2 7.8 0.00 0.00 0.00 85 1013.2
20260904070950 84 151 3.5 7.8 0.00 0.00 0.00 85 1013.3
20260904065939 84 163 3.5 7.0 0.00 0.00 0.00 86 1013.4
20260904064939 84 0 3.5 7.8 0.00 0.00 0.00 86 1013.6
20260904063938 84 0 4.3 7.8 0.00 0.00 0.00 86 1013.6
20260904062920 84 140 2.6 7.0 0.00 0.00 0.00 87 1013.6
20260904061921 84 152 2.6 7.0 0.00 0.00 0.00 86 1013.8
20260904060914 83 0 1.7 3.5 0.00 0.00 0.00 86 1013.9
20260904055908 83 142 0.9 2.6 0.00 0.00 0.00 86 1014.0
20260904054921 83 0 1.7 2.6 0.00 0.00 0.00 86 1014.0
20260904052755 83 119 0.9 1.7 0.00 0.00 0.00 85 1014.4
20260904051800 83 130 0.0 1.7 0.00 0.00 0.00 85 1014.4
20260904050745 83 159 0.0 0.0 0.00 0.00 0.00 85 1014.5
20260904043437 83 139 0.9 3.5 0.00 0.00 0.00 83 1014.4
20260904042410 83 0 1.7 6.1 0.00 0.00 0.00 83 1014.5
20260904041425 83 0 3.5 7.0 0.00 0.00 0.00 82 1014.5
20260904040415 83 157 4.3 8.7 0.00 0.00 0.00 81 1014.5
20260904033126 84 136 4.3 9.6 0.00 0.00 0.00 82 1014.4
20260904032049 83 0 4.3 9.6 0.00 0.00 0.00 82 1014.5
20260904031104 83 172 6.1 10.4 0.00 0.00 0.00 82 1014.6
20260904030028 83 0 6.1 10.4 0.00 0.00 0.00 82 1014.6
20260904025025 83 107 4.3 8.7 0.00 0.00 0.00 81 1014.7
20260904024006 83 159 3.5 8.7 0.00 0.00 0.00 83 1014.6
20260904023000 83 0 3.5 7.8 0.00 0.00 0.00 83 1014.5
20260904021953 83 125 3.5 7.8 0.00 0.00 0.00 83 1014.4
20260904020943 83 157 2.6 7.8 0.00 0.00 0.00 83 1014.5
20260904014739 84 146 5.2 8.7 0.00 0.00 0.00 84 1014.5
20260904013740 84 117 3.5 7.0 0.00 0.00 0.00 84 1014.5
20260904012723 84 149 2.6 7.8 0.00 0.00 0.00 84 1014.4
20260904010645 84 160 3.5 7.0 0.00 0.00 0.00 83 1014.2
20260904005659 84 139 3.5 7.0 0.00 0.00 0.00 83 1014.2
20260904004657 84 123 4.3 7.8 0.00 0.00 0.00 83 1014.2
20260904003651 84 131 4.3 8.7 0.00 0.00 0.00 83 1014.3
20260904002700 84 142 4.3 8.7 0.00 0.00 0.00 83 1014.2
20260904001627 84 127 1.7 6.1 0.00 0.00 0.00 84 1014.3
20260904000612 84 138 1.7 6.1 0.00 0.00 0.00 84 1014.3
20260903235617 84 0 2.6 6.1 0.00 0.00 0.00 83 1014.0
20260903234636 84 101 1.7 5.2 0.00 0.00 0.00 83 1013.9
20260903233619 84 167 2.6 6.1 0.00 0.00 0.00 82 1013.8
20260903232639 84 143 3.5 7.8 0.00 0.00 0.00 82 1013.8
20260903231627 84 148 3.5 7.8 0.00 0.00 0.00 82 1013.8
20260903230632 84 110 3.5 9.6 0.00 0.00 0.00 82 1013.8
20260903225558 84 134 3.5 9.6 0.00 0.00 0.00 82 1013.8
20260903224545 84 120 4.3 10.4 0.00 0.00 0.00 82 1013.6
20260903223532 84 148 5.2 10.4 0.00 0.00 0.00 81 1013.6
20260903222511 84 123 4.3 8.7 0.00 0.00 0.00 82 1013.5
20260903221500 85 145 4.3 9.6 0.00 0.00 0.00 81 1013.5
20260903220442 85 136 4.3 9.6 0.00 0.00 0.00 79 1013.4
20260903215432 85 132 5.2 8.7 0.00 0.00 0.00 80 1013.1
20260903214400 85 112 3.5 8.7 0.00 0.00 0.00 80 1013.4
20260903213330 85 123 4.3 10.4 0.00 0.00 0.00 79 1013.5
20260903212322 84 129 5.2 10.4 0.00 0.00 0.00 79 1013.5
20260903211249 84 146 4.3 9.6 0.00 0.00 0.00 81 1013.2
20260903204034 84 78 4.3 11.3 0.00 0.00 0.00 82 1012.5
20260903203007 84 106 6.1 11.3 0.00 0.00 0.00 81 1012.9
20260903201938 84 105 5.2 9.6 0.00 0.00 0.00 81 1013.1
20260903195839 84 105 4.3 10.4 0.00 0.00 0.00 83 1013.2
20260903194839 84 98 3.5 11.3 0.00 0.00 0.00 82 1013.4
20260903193808 84 99 5.2 11.3 0.00 0.00 0.00 82 1013.5
20260903192750 84 0 3.5 9.6 0.00 0.00 0.00 82 1013.6
20260903191753 84 153 3.5 10.4 0.00 0.00 0.00 83 1013.7
20260903190735 84 115 4.3 10.4 0.00 0.00 0.00 82 1013.7
20260903185738 84 53 4.3 9.6 0.00 0.00 0.00 82 1013.7
20260903182514 85 105 5.2 12.2 0.00 0.00 0.00 82 1014.3
20260903181518 85 82 4.3 10.4 0.00 0.00 0.00 82 1014.1
20260903180520 85 115 5.2 11.3 0.00 0.00 0.00 82 1014.2
20260903175504 84 102 6.1 11.3 0.00 0.00 0.00 82 1014.5
20260903174515 84 103 5.2 11.3 0.00 0.00 0.00 83 1014.5
20260903173513 84 86 5.2 9.6 0.00 0.00 0.00 83 1014.5
20260903172456 84 63 5.2 11.3 0.00 0.00 0.00 82 1014.3
20260903171420 84 90 6.1 11.3 0.00 0.00 0.00 82 1014.2
20260903170344 84 105 4.3 8.7 0.00 0.00 0.00 82 1014.5
20260903164230 84 25 3.5 7.8 0.00 0.00 0.00 81 1014.7
20260903163228 84 44 3.5 9.6 0.00 0.00 0.00 81 1014.9